sat.trackr.live / text

‹ back to catalog

STARLINK-6187

NORAD 56546 · 2023-065AV

PAYLOAD ACTIVE UNKNOWN

§ Identity

Operator
Country
US
Launch date
2023-05-14
Launch site
AFETR
Launch vehicle
Mass (kg)
RCS (m²)

Purposes: comms

External: N2YO · Heavens-Above · Gunter

§ Orbital elements

Epoch: 2026-09-20T05:45:18.230976Z

Period
94.27 min
Inclination
43.0031°
Eccentricity
0.0002455
Mean motion
15.27597923 rev/d
Perigee alt
481.3 km
Apogee alt
484.7 km
Semi-major
6,861.1 km
B*
5.4622e-4
RAAN
205.0835°
Arg perigee
285.4219°
Mean anomaly
74.6361°
Rev number
18,622

§ Raw data

STARLINK-61871 56546U 23065AV  26263.23979434  .00014807  00000+0  54622-3 0  99932 56546  43.0031 205.0835 0002455 285.4219  74.6361 15.27597923186225

JSON: /api/v1/satellites/56546 · /tle

For live sub-satellite position, see the globe view (requires WebGL).

§ Visibility from observer

Set your observer location to see the next 7 days of passes ≥ 10°. The values pass through the URL so the page stays shareable.

No JS? Fill the form by hand. The geolocation button needs JavaScript.